Location: Madrid
(40.4000°N, 3.6830°W)
Time: 03:53:33
(UTC+02:00)

ISS - Pass Details

Date: 25 May 2019
Orbit: 408 x 418 km, 51.6° (Epoch: 26 May)

Event Time Altitude Azimuth Distance (km) Brightness Sun altitude
Rises 00:12:39 0° 307° (NW) 2,354 1.2 -22.8°
Reaches altitude 10° 00:15:45 10° 338° (NNW) 1,493 0.1 -23.1°
Maximum altitude 00:17:17 13° 5° (N) 1,351 -0.5 -23.2°
Drops below altitude 10° 00:18:48 10° 32° (NNE) 1,495 -0.6 -23.4°
Enters shadow 00:20:20 - 51° (NE) 1,859 -0.4 -23.5°
